Wetbulb
70.42 69.59 68.50 66.95 59.15 56.30 54.24 57.68 62.88 61.45 60.21 63.29 65.20 64.53 63.72 65.46 64.19 59.11 71.24 73.43 74.12 74.23 75.38 76.07 77.03 77.00 76.69 76.65 75.89 75.37 75.81 75.80 75.51 75.05 73.38 72.55 71.88 71.37 70.82 70.35 69.82 69.43 69.02 68.59 68.24 67.86 67.69 67.54 67.54
68.00 69.48 67.24 63.41 56.03 51.45 53.96 59.60 58.89 62.41 64.21 63.93 65.93 65.01 65.60 63.78 69.24 69.38 70.72 73.68 74.22 74.23 74.35 75.55 77.29 76.98 76.46 75.93 75.43 75.11 75.13 74.50 73.76 73.31 72.50 71.81 70.99 70.10 69.21 68.59 68.24 68.10 67.76 67.44 66.99 66.46 65.99 65.81 65.94
69.78 70.83 63.20 60.05 57.04 52.37 51.86 58.13 61.09 63.35 64.76 64.27 60.13 63.64 63.93 65.75 69.78 70.75 73.63 74.00 73.89 73.29 73.85 75.10 76.75 75.96 75.80 74.83 74.89 74.72 73.96 73.09 72.69 72.37 71.66 70.77 69.62 68.40 67.94 67.81 67.69 67.57 67.27 67.09 66.13 65.88 65.69 65.72 65.79
68.83 67.01 64.04 56.84 55.13 57.94 58.52 60.10 63.77 61.73 63.35 65.39 63.29 61.09 66.06 71.30 71.40 73.05 73.82 74.34 73.17 73.32 73.74 75.70 76.27 75.82 75.69 74.59 74.43 73.79 73.21 72.77 72.40 71.79 70.88 69.49 68.27 67.73 68.00 67.73 67.29 66.67 66.59 66.44 65.98 65.75 65.87 65.97 66.08
68.87 64.50 57.29 56.69 57.38 58.76 60.17 63.06 62.65 61.40 61.83 63.94 64.10 61.70 64.06 70.91 73.33 73.82 73.38 73.69 72.49 72.60 73.28 74.04 75.79 75.92 75.23 74.21 73.31 72.61 72.63 72.23 71.65 70.69 69.60 68.54 68.02 67.92 67.92 67.32 67.38 66.77 66.52 66.20 65.86 65.85 66.44 66.82 67.00
62.14 63.23 54.57 52.64 56.27 58.73 60.06 61.44 61.88 61.56 62.80 63.60 63.76 64.07 64.47 71.12 71.47 72.82 74.23 73.04 72.93 72.00 72.48 73.23 75.30 75.42 74.27 73.27 72.52 72.63 72.27 71.50 70.79 69.80 68.96 68.40 67.86 68.18 68.13 67.81 67.43 66.95 66.35 66.02 66.05 66.68 67.35 67.62 67.88
62.25 57.43 53.75 55.09 55.49 56.02 59.78 62.30 60.57 60.82 60.15 62.80 65.82 62.64 65.23 68.64 71.24 72.21 73.39 73.48 73.11 72.44 71.93 72.10 72.73 72.99 74.06 73.74 73.00 72.32 71.51 71.21 70.64 70.74 70.03 68.37 68.16 68.53 68.34 68.26 68.10 68.05 67.91 67.86 67.97 68.13 68.55 68.78 68.83
61.39 59.55 55.71 54.41 53.52 55.00 62.52 62.49 64.34 62.50 62.79 68.98 66.07 61.97 63.01 67.47 71.19 71.55 71.31 72.24 72.64 71.95 71.47 71.59 71.54 71.11 71.45 71.75 72.69 71.84 71.13 70.58 70.93 69.68 69.33 69.33 68.53 68.50 69.01 69.89 69.96 68.83 68.82 68.82 69.26 69.68 70.13 70.90 71.23
64.33 57.03 53.04 53.81 55.26 57.70 61.73 59.32 64.15 65.08 64.81 65.22 66.18 65.46 69.10 70.54 70.88 69.92 69.12 68.90 71.22 71.45 70.67 70.82 70.52 70.79 71.25 70.64 70.87 71.70 71.08 70.49 70.15 69.47 69.69 69.41 64.93 64.63 66.43 68.32 68.78 69.98 70.06 69.84 70.30 71.07 71.76 71.71 71.39
60.80 55.03 55.93 59.13 59.61 58.06 61.65 61.43 61.73 62.31 61.35 60.43 63.02 67.39 69.37 70.46 69.34 68.15 68.01 67.51 69.06 69.31 69.41 69.76 70.13 71.07 70.67 71.14 69.46 67.50 67.45 66.43 65.75 65.88 64.99 65.70 63.95 63.62 65.86 67.59 70.98 71.57 71.12 70.73 71.31 71.88 72.10 71.18 67.19
60.63 55.14 59.80 60.14 61.20 61.99 60.86 61.98 62.75 60.99 59.92 60.09 59.58 61.51 65.96 67.92 68.16 67.84 68.28 68.61 67.08 69.70 69.57 69.54 70.80 71.21 70.16 69.07 68.55 67.25 66.18 65.91 65.68 65.06 64.30 63.79 65.07 65.21 66.72 65.61 68.75 67.26 69.61 66.46 67.08 67.05 67.55 66.21 65.35
58.92 60.36 60.34 60.99 61.59 62.06 60.64 62.90 60.73 60.89 61.34 65.29 63.73 64.45 64.70 64.85 67.09 66.91 66.97 67.94 68.00 69.00 69.78 71.15 71.46 69.83 69.24 68.86 67.59 66.50 65.79 65.38 65.30 65.38 66.84 66.69 65.32 64.13 65.54 65.42 64.97 63.92 65.44 64.30 65.37 64.73 64.59 65.36 66.79
59.42 59.97 60.76 62.28 63.24 61.83 62.88 60.60 60.89 61.42 65.13 65.96 65.68 65.80 63.72 67.27 67.24 67.68 67.80 68.93 68.44 68.50 69.70 69.97 70.56 69.28 69.02 68.26 66.71 66.30 66.16 65.75 65.33 65.96 64.93 65.73 65.67 65.19 64.35 64.42 64.65 64.76 63.10 63.70 63.98 64.83 65.89 64.60 63.89
58.60 61.43 60.26 62.27 61.65 62.06 59.76 59.07 62.19 62.13 64.30 65.49 65.65 64.84 65.72 68.13 67.86 68.10 67.55 67.59 68.18 68.99 68.66 69.51 69.67 69.31 68.89 67.64 65.40 63.48 63.75 63.11 64.23 64.15 63.16 64.32 65.07 64.02 64.76 64.25 63.87 63.57 63.98 64.14 64.34 65.22 64.59 62.63 62.36
58.55 56.64 58.98 59.70 60.05 59.78 59.84 56.19 58.49 61.45 61.92 64.37 65.92 67.17 67.77 68.41 69.60 67.89 67.94 68.48 69.36 68.91 69.68 70.14 70.17 69.58 69.48 67.41 65.71 62.64 62.36 63.93 63.90 62.94 62.52 63.15 62.95 63.76 63.65 64.03 63.92 64.19 64.52 65.05 64.95 62.89 61.54 60.76 60.15
55.93 56.82 51.40 57.50 59.34 60.80 58.69 52.35 60.29 61.00 60.17 60.31 65.40 66.97 68.13 68.09 69.07 68.82 68.88 69.60 70.44 70.22 69.62 70.56 71.18 71.03 70.58 68.76 66.09 64.28 62.97 62.98 63.53 63.37 62.64 64.59 63.29 63.94 64.41 63.86 63.96 64.74 65.20 64.45 61.15 59.63 57.17 55.88 54.49
52.21 46.85 50.64 54.37 59.28 58.73 56.44 53.94 57.90 61.49 59.65 58.73 64.13 66.30 67.09 67.20 68.21 68.43 70.26 70.04 69.70 69.88 69.93 69.95 70.88 70.55 69.51 69.14 68.06 66.36 64.27 65.38 64.73 64.45 64.03 63.76 63.88 65.62 64.30 64.43 64.18 64.52 62.21 58.10 57.86 57.22 54.69 52.00 52.08
46.26 46.76 50.76 51.51 56.46 56.22 53.76 53.32 58.14 59.37 60.44 59.62 61.05 63.92 65.72 66.66 67.36 68.83 69.89 70.57 69.37 70.09 69.95 69.75 70.09 69.71 69.25 69.19 69.32 68.72 67.32 67.66 67.32 66.52 65.89 65.65 65.69 66.47 64.23 63.59 60.49 60.10 57.09 56.30 56.03 53.48 53.12 51.97 51.39
52.79 51.31 49.83 53.83 57.05 54.01 52.65 53.99 55.98 58.14 59.62 58.12 57.56 59.47 62.41 63.93 67.59 68.54 69.59 69.41 69.73 69.13 68.59 69.00 68.80 69.03 69.14 67.64 66.67 66.26 65.43 66.11 65.73 65.85 65.99 65.59 64.56 65.26 62.50 58.67 57.38 55.77 53.39 54.88 54.34 53.34 52.08 50.75 51.39
53.44 51.40 51.11 54.31 57.04 54.40 53.74 53.44 56.34 59.49 57.87 57.40 58.28 58.69 59.04 57.57 64.47 67.11 67.87 68.41 68.10 67.83 68.17 68.62 68.17 68.24 67.57 67.91 66.83 66.11 66.17 65.95 65.31 64.89 64.43 65.05 65.07 61.98 60.22 56.64 55.23 54.03 54.19 53.77 53.24 52.21 50.78 50.31 51.04
52.93 51.13 51.12 49.26 52.34 52.67 50.49 49.17 54.18 57.04 59.22 58.86 57.68 59.99 58.55 58.44 60.81 65.66 67.02 67.37 67.71 67.44 67.71 68.71 67.44 66.90 66.99 66.67 66.34 65.51 65.14 64.52 63.15 62.74 62.86 62.24 60.83 59.59 57.33 56.00 55.05 53.99 52.31 53.31 52.67 52.37 51.03 48.91 49.92
46.73 52.08 51.41 50.39 47.99 42.28 49.68 41.64 49.02 54.19 55.49 56.56 58.32 58.17 60.33 62.56 63.69 65.74 66.21 66.02 66.78 66.96 68.34 67.14 67.13 66.52 66.64 66.66 65.18 63.34 62.18 60.76 61.21 61.99 61.56 61.44 60.06 58.38 56.65 55.77 55.50 54.46 52.54 52.79 52.70 54.18 51.66 49.86 47.68
49.61 52.62 50.80 50.83 47.57 44.17 48.00 43.13 46.80 53.78 54.27 53.77 56.56 58.02 56.23 60.50 64.83 64.75 65.32 66.33 67.06 67.27 67.25 66.62 66.84 65.93 65.82 65.25 64.43 62.78 60.87 61.43 61.62 62.89 62.26 58.01 57.34 57.29 57.08 55.68 54.85 53.08 53.43 53.24 53.22 52.81 51.68 51.36 48.69
55.01 51.92 50.77 49.84 46.76 40.31 45.67 45.11 43.82 49.40 52.59 54.39 56.74 57.62 57.27 60.57 64.58 62.47 63.86 66.37 65.95 66.60 66.53 66.75 66.24 65.00 64.81 63.70 60.97 60.11 58.57 57.84 56.82 56.35 54.33 57.93 57.64 56.68 56.05 56.50 53.89 53.40 54.49 53.16 53.90 53.61 53.18 51.79 50.79
53.14 49.09 39.84 38.56 38.45 38.07 47.51 45.69 46.25 52.99 55.47 55.47 55.44 57.94 59.13 61.18 62.32 62.56 64.14 64.93 65.33 64.92 64.69 65.32 64.61 63.50 63.35 60.59 59.96 59.39 58.29 57.29 55.55 53.55 51.16 52.66 54.08 54.59 54.75 55.00 53.28 52.27 53.06 54.10 53.88 53.63 53.66 52.44 50.63
51.10 47.20 40.21 35.16 37.15 40.30 48.94 43.98 50.63 54.71 56.17 57.21 57.84 58.24 60.30 62.22 61.28 61.76 64.04 64.89 64.68 65.15 65.40 64.78 63.58 62.19 60.08 59.86 58.82 59.21 59.67 56.03 55.46 53.30 51.69 53.43 53.43 54.31 54.89 54.72 54.27 53.46 54.06 54.15 53.94 53.67 53.58 53.55 52.15
50.27 45.04 49.79 44.00 44.90 41.76 45.06 47.95 54.04 56.34 55.85 57.58 57.46 58.15 58.65 59.82 60.70 61.46 63.87 63.97 64.67 64.62 64.39 64.62 61.43 58.86 58.09 59.06 58.98 58.83 57.26 56.24 54.51 53.92 53.25 55.02 53.48 54.82 55.63 55.37 54.03 53.55 53.98 53.97 53.74 53.22 52.81 52.43 52.34
50.25 52.73 44.78 44.97 37.47 35.88 42.38 44.36 44.81 50.71 53.00 55.89 55.27 56.26 57.14 57.57 58.54 60.68 61.90 63.33 63.91 63.77 62.68 58.72 57.64 57.12 58.35 60.04 59.12 60.37 57.90 56.56 54.71 53.83 53.03 53.94 54.06 55.04 54.91 55.77 54.11 53.39 53.53 53.87 53.32 52.95 52.85 51.48 51.71
49.98 46.89 47.36 46.87 45.10 41.17 38.22 42.05 51.07 50.52 52.66 52.95 54.52 57.66 56.27 57.48 58.99 58.41 57.81 60.83 59.27 59.88 58.90 57.47 57.27 57.91 59.03 58.92 61.21 60.55 59.39 56.21 54.46 53.69 54.37 54.64 55.17 54.93 55.19 55.87 54.22 53.16 53.08 53.67 53.28 53.28 53.45 53.05 52.62
51.42 49.38 49.57 42.88 41.83 45.15 43.00 43.25 54.90 53.43 53.89 55.72 56.13 57.43 55.51 56.20 57.75 58.60 57.29 58.48 57.61 57.23 56.77 57.91 57.61 58.17 58.26 58.96 59.50 57.87 56.96 55.68 55.11 54.56 54.40 54.89 55.17 55.98 55.91 56.00 55.35 53.95 53.48 52.87 53.10 52.82 53.61 52.29 51.68
MSLP
1010.99 1011.28 1011.76 1011.54 1011.99 1011.54 1011.57 1011.12 1009.73 1007.61 1006.68 1006.10 1005.99 1006.99 1008.42 1009.05 1010.04 1011.37 1011.72 1012.49 1013.50 1014.16 1014.78 1015.33 1015.69 1016.13 1016.56 1016.65 1017.00 1017.22 1017.48 1017.99 1018.11 1018.44 1018.51 1018.83 1018.87 1018.80 1018.95 1019.08 1019.12 1019.21 1019.37 1019.38 1019.40 1019.24 1019.15 1019.17 1019.08
1010.58 1010.83 1011.31 1011.02 1011.07 1011.28 1011.02 1010.88 1009.52 1007.08 1006.08 1005.96 1006.32 1007.10 1008.23 1010.00 1010.40 1011.36 1012.31 1013.01 1013.31 1014.20 1014.86 1015.29 1015.62 1016.04 1016.42 1016.80 1017.11 1017.38 1017.62 1017.89 1018.35 1018.66 1018.89 1019.11 1019.14 1019.17 1019.21 1019.19 1019.26 1019.31 1019.37 1019.56 1019.69 1019.54 1019.25 1019.22 1019.16
1010.88 1010.84 1011.00 1010.74 1010.60 1010.56 1010.20 1009.48 1007.79 1006.89 1005.78 1005.83 1006.22 1006.94 1008.21 1009.99 1010.54 1011.17 1011.91 1012.90 1013.46 1014.16 1014.72 1015.20 1015.67 1016.15 1016.52 1016.89 1017.36 1017.57 1017.80 1018.28 1018.54 1018.85 1019.06 1019.12 1019.02 1019.23 1019.15 1019.30 1019.42 1019.39 1019.31 1019.43 1019.62 1019.72 1019.57 1019.37 1019.16
1010.40 1010.55 1010.41 1010.57 1010.19 1008.74 1007.97 1007.71 1006.74 1006.53 1005.48 1005.44 1006.48 1008.07 1009.02 1009.39 1010.07 1011.17 1012.29 1012.86 1013.47 1014.27 1014.84 1015.37 1015.89 1016.21 1016.63 1017.06 1017.45 1017.78 1018.17 1018.50 1018.70 1018.82 1019.01 1019.33 1019.41 1019.33 1019.37 1019.37 1019.60 1019.60 1019.42 1019.42 1019.57 1019.55 1019.63 1019.38 1019.16
1011.35 1012.15 1012.61 1011.43 1009.58 1007.50 1006.64 1006.53 1006.23 1005.66 1005.30 1006.04 1006.45 1008.78 1009.69 1010.35 1010.30 1011.38 1012.10 1012.65 1013.46 1014.45 1014.90 1015.35 1015.78 1016.25 1016.68 1017.20 1017.58 1017.91 1018.15 1018.47 1018.73 1018.93 1019.10 1019.34 1019.42 1019.51 1019.55 1019.47 1019.41 1019.62 1019.61 1019.59 1019.48 1019.45 1019.51 1019.28 1019.07
1012.96 1014.00 1014.52 1012.98 1010.51 1007.58 1006.29 1005.74 1005.47 1005.38 1005.66 1006.61 1007.47 1008.74 1010.42 1010.73 1010.74 1011.41 1011.75 1012.32 1013.00 1014.21 1014.76 1015.27 1015.79 1016.39 1016.95 1017.31 1017.47 1017.98 1018.09 1018.30 1018.58 1018.89 1019.14 1019.26 1019.40 1019.45 1019.56 1019.53 1019.26 1019.27 1019.43 1019.44 1019.37 1019.29 1019.30 1019.26 1019.19
1012.49 1014.79 1015.24 1014.07 1012.48 1010.12 1007.33 1005.63 1005.74 1005.55 1005.78 1006.44 1007.09 1008.96 1010.72 1010.91 1010.89 1010.91 1011.47 1012.04 1012.94 1013.66 1014.33 1015.05 1015.67 1016.30 1016.87 1017.14 1017.73 1017.95 1018.01 1018.12 1018.48 1018.80 1019.02 1019.20 1019.09 1019.35 1019.50 1019.39 1019.14 1018.95 1019.01 1019.15 1019.13 1019.14 1019.18 1019.18 1019.09
1012.03 1013.59 1014.77 1014.70 1014.05 1012.51 1008.81 1008.14 1006.20 1005.86 1006.69 1007.12 1008.80 1010.94 1010.42 1010.71 1010.67 1010.76 1011.06 1012.02 1012.87 1013.47 1014.08 1014.90 1015.71 1016.02 1016.48 1017.05 1017.53 1017.80 1017.97 1018.18 1018.39 1018.63 1018.72 1018.82 1018.94 1019.25 1019.23 1019.12 1019.00 1018.89 1019.00 1018.95 1018.78 1018.83 1018.88 1018.94 1018.89
1012.06 1013.93 1014.26 1013.81 1014.07 1012.26 1008.78 1008.91 1006.24 1006.89 1008.10 1009.26 1010.23 1011.07 1009.72 1010.12 1010.42 1010.69 1010.91 1011.54 1012.82 1013.49 1013.93 1014.59 1015.34 1015.94 1016.27 1016.80 1017.18 1017.66 1017.83 1018.03 1018.25 1018.32 1018.45 1018.67 1019.00 1019.12 1019.11 1018.91 1018.85 1018.65 1018.77 1018.78 1018.84 1018.86 1018.78 1018.72 1018.68
1011.79 1014.10 1013.18 1012.78 1011.16 1011.59 1009.36 1009.22 1007.94 1007.62 1009.15 1010.62 1010.42 1009.76 1009.90 1010.29 1010.23 1010.38 1010.86 1011.27 1012.12 1013.14 1013.75 1014.27 1014.73 1015.38 1015.89 1016.47 1016.84 1017.42 1017.70 1017.88 1018.03 1018.15 1018.30 1018.47 1018.64 1018.84 1018.67 1018.65 1018.44 1018.46 1018.65 1018.66 1018.60 1018.59 1018.57 1018.59 1018.47
1010.41 1011.87 1011.28 1010.79 1009.20 1009.48 1009.05 1007.48 1007.92 1007.27 1008.02 1009.19 1009.54 1009.05 1008.46 1009.85 1010.21 1010.11 1010.49 1010.55 1010.94 1012.24 1013.08 1013.82 1014.12 1014.70 1015.18 1015.93 1016.63 1017.16 1017.45 1017.62 1017.77 1017.84 1018.04 1018.24 1018.41 1018.44 1018.56 1018.58 1018.36 1018.63 1018.64 1018.72 1018.62 1018.38 1018.58 1018.58 1018.54
1009.55 1009.47 1008.95 1007.72 1008.20 1008.27 1008.49 1006.83 1007.10 1006.61 1006.43 1007.10 1007.67 1007.66 1008.58 1009.29 1009.43 1009.60 1009.75 1010.34 1011.08 1011.84 1012.49 1013.24 1013.58 1014.24 1014.76 1015.51 1016.11 1016.38 1016.76 1017.06 1017.38 1017.44 1017.65 1018.08 1018.24 1018.20 1018.36 1018.42 1018.33 1018.53 1018.53 1018.58 1018.65 1018.61 1018.53 1018.31 1017.91
1007.31 1007.77 1007.70 1006.93 1007.74 1008.69 1007.82 1006.77 1006.27 1006.13 1005.90 1006.35 1007.27 1008.02 1008.46 1008.89 1008.95 1009.02 1008.98 1009.62 1010.82 1011.84 1012.40 1012.82 1013.22 1013.85 1014.31 1015.08 1015.89 1015.89 1016.24 1016.57 1016.93 1017.10 1017.65 1017.65 1018.02 1018.21 1018.30 1018.27 1018.35 1018.49 1018.51 1018.41 1018.41 1018.38 1018.25 1018.14 1018.23
1005.35 1005.95 1006.68 1007.93 1007.84 1007.69 1007.48 1005.88 1005.53 1005.70 1005.36 1006.51 1007.05 1007.70 1007.90 1008.15 1008.60 1008.94 1009.50 1010.08 1011.00 1011.66 1012.06 1012.51 1013.07 1013.50 1014.39 1015.25 1015.53 1015.67 1016.05 1016.57 1016.74 1017.02 1017.37 1017.56 1017.96 1018.15 1018.24 1018.37 1018.49 1018.35 1018.33 1018.37 1018.27 1018.24 1018.21 1018.29 1018.15
1005.69 1006.19 1006.30 1006.36 1006.39 1006.28 1006.85 1006.05 1006.00 1005.73 1005.59 1005.75 1006.04 1006.46 1007.46 1007.50 1007.88 1008.84 1009.39 1009.91 1010.25 1010.77 1011.15 1012.12 1012.83 1013.42 1014.15 1014.85 1015.35 1015.80 1016.28 1016.54 1016.75 1017.07 1017.32 1017.57 1017.89 1018.12 1018.25 1018.46 1018.53 1018.47 1018.32 1018.23 1018.25 1018.33 1018.36 1018.53 1018.36
1006.64 1006.82 1007.16 1006.52 1006.43 1005.68 1006.38 1006.80 1006.62 1006.03 1005.53 1005.55 1005.54 1006.41 1007.30 1007.76 1008.33 1008.81 1009.36 1009.94 1010.38 1011.02 1011.36 1011.97 1012.63 1013.32 1014.08 1014.84 1015.31 1015.89 1016.21 1016.47 1016.79 1017.07 1017.35 1017.58 1017.86 1018.04 1018.21 1018.49 1018.57 1018.39 1018.25 1018.37 1018.30 1018.65 1018.85 1018.97 1018.95
1007.68 1007.80 1007.48 1007.35 1006.66 1006.55 1006.57 1006.88 1006.44 1006.12 1006.01 1005.42 1005.64 1006.54 1007.52 1008.26 1008.74 1009.28 1009.54 1010.42 1010.79 1011.29 1011.97 1012.57 1012.99 1013.55 1014.14 1014.86 1015.25 1015.73 1016.19 1016.46 1016.66 1016.89 1017.32 1017.56 1017.88 1017.98 1018.20 1018.50 1018.48 1018.47 1018.82 1018.85 1018.99 1019.30 1019.30 1019.30 1019.19
1008.07 1007.78 1007.09 1007.07 1006.86 1007.01 1006.88 1006.46 1005.67 1005.20 1006.06 1006.06 1006.77 1008.07 1008.99 1008.04 1009.32 1009.54 1010.22 1011.07 1011.92 1012.17 1012.31 1012.76 1013.43 1013.74 1014.35 1014.98 1015.25 1015.63 1016.07 1016.16 1016.49 1016.95 1017.29 1017.55 1017.73 1017.79 1018.09 1018.57 1018.87 1018.89 1019.09 1019.20 1019.16 1019.35 1019.52 1019.62 1019.55
1007.58 1007.60 1007.30 1006.24 1006.03 1006.26 1006.85 1006.24 1005.88 1005.48 1006.54 1007.96 1008.89 1009.34 1009.55 1009.18 1009.72 1009.34 1010.33 1011.05 1012.00 1012.59 1012.96 1013.10 1013.60 1014.15 1014.45 1014.98 1015.37 1015.84 1016.29 1016.50 1016.76 1016.96 1017.10 1017.34 1017.49 1017.76 1018.49 1018.99 1019.06 1019.17 1019.49 1019.73 1019.69 1019.79 1019.94 1019.94 1019.72
1006.66 1006.71 1006.07 1005.46 1005.14 1006.00 1005.66 1005.71 1004.79 1005.92 1007.11 1007.85 1008.69 1009.75 1010.35 1012.18 1010.35 1010.06 1010.40 1011.23 1012.15 1012.88 1013.06 1013.53 1013.76 1014.23 1014.56 1014.76 1015.20 1015.49 1015.88 1016.36 1016.65 1016.88 1017.05 1017.23 1017.45 1017.90 1018.25 1018.86 1019.32 1019.43 1019.78 1019.96 1019.92 1020.03 1020.28 1020.34 1019.95
1005.65 1005.47 1005.51 1004.71 1004.22 1004.27 1005.00 1005.90 1006.56 1007.26 1007.67 1008.83 1009.51 1009.68 1009.34 1008.99 1010.39 1012.51 1011.39 1011.76 1012.67 1013.49 1013.36 1013.91 1013.98 1014.33 1014.46 1014.75 1015.34 1015.74 1016.00 1016.50 1016.96 1017.10 1017.19 1017.36 1017.55 1018.09 1018.44 1018.89 1019.22 1019.54 1019.76 1020.05 1020.01 1020.04 1020.27 1020.55 1020.23
1004.57 1004.04 1004.12 1004.50 1004.90 1005.25 1005.11 1006.45 1006.93 1007.36 1007.92 1008.55 1009.22 1009.66 1008.97 1008.34 1010.04 1011.43 1010.99 1011.81 1012.48 1013.25 1013.34 1014.02 1014.07 1014.26 1014.76 1014.96 1015.53 1016.08 1016.34 1016.73 1016.90 1017.03 1017.13 1017.22 1017.39 1018.04 1018.42 1018.86 1019.20 1019.42 1019.60 1019.88 1019.82 1019.83 1020.03 1020.21 1020.41
1003.69 1003.51 1004.19 1004.69 1005.24 1005.75 1005.98 1007.08 1007.35 1007.27 1008.50 1009.00 1008.80 1010.32 1010.53 1009.82 1009.71 1011.14 1011.67 1012.25 1012.11 1013.11 1013.52 1014.31 1014.20 1014.40 1014.89 1015.12 1015.72 1016.23 1016.43 1016.62 1016.74 1017.05 1017.49 1017.35 1017.65 1018.14 1018.43 1018.79 1019.13 1019.35 1019.45 1019.70 1019.77 1019.64 1019.81 1019.84 1019.91
1003.36 1003.90 1004.51 1005.07 1005.92 1006.86 1006.99 1007.97 1009.30 1009.57 1009.79 1010.03 1009.47 1010.57 1011.72 1011.50 1010.59 1010.79 1012.48 1012.45 1012.79 1013.47 1014.16 1014.66 1014.34 1014.46 1014.98 1015.41 1016.11 1016.63 1016.99 1017.18 1017.54 1017.95 1018.20 1018.16 1018.24 1018.47 1018.60 1018.69 1019.01 1019.10 1019.28 1019.46 1019.42 1019.52 1019.41 1019.45 1019.46
1004.21 1005.14 1006.10 1006.87 1007.35 1007.95 1007.74 1008.72 1011.57 1011.00 1010.82 1010.68 1010.45 1010.13 1009.92 1011.10 1011.28 1012.25 1012.82 1012.41 1013.26 1014.35 1014.62 1015.01 1014.61 1014.58 1014.99 1015.70 1016.36 1016.86 1017.28 1017.57 1017.98 1018.26 1018.34 1018.46 1018.54 1018.66 1018.75 1018.79 1019.00 1018.98 1019.01 1019.04 1018.96 1019.26 1019.11 1019.06 1019.16
1005.05 1005.62 1007.15 1007.73 1008.51 1008.75 1008.75 1010.26 1010.90 1010.76 1010.21 1010.99 1011.29 1010.99 1011.55 1012.34 1012.18 1012.52 1011.76 1012.25 1012.97 1014.39 1014.75 1014.81 1014.35 1014.53 1015.28 1015.59 1016.23 1016.78 1017.39 1017.77 1017.98 1018.11 1018.28 1018.43 1018.70 1018.76 1018.61 1018.52 1018.51 1018.53 1018.57 1018.67 1018.69 1018.90 1018.84 1018.74 1018.68
1004.85 1005.46 1005.97 1007.47 1008.42 1009.33 1010.05 1011.55 1011.51 1011.12 1010.98 1011.75 1011.70 1012.31 1012.25 1013.22 1013.53 1012.49 1011.01 1011.47 1012.83 1014.04 1014.52 1014.61 1014.20 1014.52 1015.31 1015.75 1015.91 1016.54 1016.99 1017.37 1017.75 1018.04 1018.22 1018.33 1018.20 1018.14 1018.16 1017.97 1018.27 1018.29 1018.24 1018.28 1018.36 1018.61 1018.53 1018.34 1018.28
1004.50 1005.26 1006.17 1007.68 1009.53 1010.39 1010.72 1011.38 1012.10 1011.57 1011.84 1012.11 1012.15 1013.00 1013.53 1012.58 1011.84 1011.32 1011.32 1010.96 1012.01 1013.47 1014.16 1014.19 1014.28 1014.65 1014.48 1015.48 1015.70 1016.22 1016.64 1016.96 1017.19 1017.63 1017.97 1018.13 1018.11 1017.94 1017.93 1017.99 1018.00 1018.11 1017.98 1017.98 1018.16 1018.27 1018.10 1017.97 1017.78
1004.85 1005.26 1006.39 1008.09 1009.42 1010.87 1011.31 1012.23 1012.25 1012.04 1012.20 1012.35 1013.30 1013.40 1013.26 1012.43 1012.00 1012.20 1013.21 1011.75 1011.91 1012.65 1013.65 1013.71 1014.01 1014.24 1014.41 1015.23 1015.67 1015.89 1016.41 1016.92 1017.17 1017.44 1017.63 1017.85 1017.93 1017.82 1017.76 1017.67 1017.65 1017.64 1017.64 1017.64 1017.73 1017.75 1017.58 1017.48 1017.36
1004.82 1005.42 1006.28 1008.24 1009.49 1010.44 1011.20 1012.63 1012.58 1012.08 1012.30 1013.09 1013.63 1014.03 1014.05 1013.53 1012.17 1013.30 1014.42 1013.91 1012.81 1013.09 1013.17 1013.31 1013.93 1014.15 1013.92 1015.02 1015.31 1015.77 1016.30 1016.71 1017.03 1017.26 1017.45 1017.57 1017.58 1017.45 1017.38 1017.27 1017.21 1017.17 1017.11 1017.06 1017.16 1017.15 1016.99 1016.94 1016.95
Wind_Speed
4 6 3 3 0 3 2 3 6 1 4 5 6 16 13 9 4 5 7 20 21 18 15 15 18 17 16 16 15 12 13 12 11 12 14 11 11 11 10 9 8 7 6 5 4 4 4 4 3
3 7 3 4 3 2 3 5 13 0 6 7 10 17 15 8 7 10 12 20 20 16 12 13 18 16 16 15 13 13 11 11 12 12 11 11 10 9 8 7 6 6 5 4 4 4 3 3 4
3 7 2 3 3 5 3 7 7 4 5 9 5 10 6 9 14 5 19 21 19 16 14 14 18 16 15 15 13 13 13 11 11 11 11 10 9 8 7 6 5 5 5 4 3 3 4 4 5
4 4 4 4 15 8 10 13 11 12 3 3 16 10 6 5 6 14 21 20 17 16 15 16 17 16 16 15 14 14 13 13 12 12 11 9 8 7 6 6 4 4 4 4 3 3 4 5 6
7 4 5 5 11 5 4 15 16 9 5 17 13 6 5 7 19 22 20 17 18 15 14 15 17 16 17 16 15 14 14 13 12 11 10 9 8 7 6 6 6 4 4 3 2 2 4 5 5
5 3 5 9 16 3 4 7 7 7 11 18 17 10 4 10 14 18 17 17 19 17 15 15 19 17 16 15 15 15 14 13 12 10 10 9 8 8 7 7 7 5 3 2 3 5 7 7 7
7 5 3 12 14 15 8 5 5 5 4 12 11 7 7 8 12 13 18 16 20 19 16 14 14 16 18 16 15 15 14 13 11 10 9 10 11 10 9 8 8 8 8 7 7 8 9 9 10
6 4 2 4 15 21 14 17 2 8 2 13 11 8 6 8 13 12 10 20 20 17 16 15 12 13 13 11 17 15 14 13 12 11 11 12 12 11 11 11 10 11 10 10 11 10 11 11 11
5 3 0 5 3 10 27 14 8 8 19 17 9 15 7 15 13 13 10 12 16 14 17 15 14 11 11 11 11 14 15 14 12 12 12 9 4 6 9 11 14 14 13 12 11 12 12 11 11
7 4 11 12 16 14 21 12 11 4 19 17 13 15 7 13 12 13 13 12 19 17 18 16 15 14 13 10 10 7 8 5 6 6 7 5 6 6 11 13 18 16 14 11 12 12 13 11 5
7 9 9 16 25 20 12 16 10 7 5 20 20 16 15 9 11 11 12 13 11 21 15 17 16 15 15 11 8 5 5 5 6 8 6 5 5 6 5 3 3 3 8 3 4 7 4 5 5
8 14 14 14 24 7 10 16 12 5 5 22 19 15 10 13 12 10 10 8 15 21 17 17 16 15 11 9 8 9 7 6 5 7 5 4 3 3 3 2 3 4 2 2 1 1 2 3 3
13 13 18 15 9 18 18 13 9 4 1 15 15 13 14 15 11 9 7 14 16 15 15 12 14 11 11 10 4 8 8 6 5 5 5 4 3 3 3 3 2 2 1 1 3 2 4 4 5
1 13 19 8 15 14 5 1 7 6 6 22 18 17 18 16 15 6 10 10 13 15 13 12 9 9 9 7 6 5 5 5 4 4 4 5 4 2 2 2 2 4 3 4 4 4 3 2 3
9 7 6 12 8 5 6 8 6 4 3 8 7 12 12 9 11 9 8 11 13 9 11 14 10 9 9 10 6 5 5 5 4 4 3 2 2 1 2 2 3 3 3 5 4 4 4 5 6
7 6 5 2 3 6 3 8 4 8 7 9 13 11 11 9 9 8 8 10 10 13 14 13 11 10 10 8 7 4 4 4 4 3 3 2 2 2 1 2 2 4 4 3 4 4 5 4 4
6 3 4 5 6 2 3 5 9 13 14 10 13 14 12 8 10 7 8 11 9 9 10 10 10 10 9 9 6 6 6 5 4 3 3 2 4 4 1 1 3 4 4 4 4 4 3 4 5
4 7 1 10 4 3 6 10 10 8 11 9 7 14 15 12 9 12 10 9 8 8 7 9 7 9 8 5 5 4 4 3 4 3 2 5 2 2 1 5 6 5 4 5 4 6 5 2 4
6 11 13 18 9 6 9 16 15 14 8 13 11 13 15 24 8 11 8 10 11 8 8 8 9 7 7 3 4 3 4 3 3 3 5 5 4 4 7 5 5 5 6 4 4 3 5 5 4
15 15 22 20 19 10 16 17 21 5 4 9 15 8 14 18 29 7 11 10 7 6 8 8 8 8 5 4 3 3 4 3 4 3 4 3 6 7 7 6 5 6 5 5 4 5 3 3 3
19 18 13 5 6 4 5 5 7 1 11 8 4 11 14 17 22 12 10 12 8 7 7 7 7 6 6 6 4 3 4 4 3 2 2 3 8 7 7 7 5 3 3 2 2 3 4 1 4
10 7 8 11 10 5 4 8 4 3 1 2 8 5 13 16 17 10 13 11 11 6 6 7 8 8 6 6 5 6 5 5 4 3 3 5 7 7 7 6 5 4 3 2 1 2 0 1 2
7 2 7 7 9 5 5 5 6 6 2 7 6 6 4 4 12 7 6 12 12 8 7 6 8 7 6 7 4 3 2 2 3 5 5 4 4 7 6 6 5 2 2 1 1 1 2 2 2
9 7 6 6 4 3 6 6 7 6 6 14 17 19 8 5 10 9 10 11 10 9 8 6 7 7 8 9 8 8 8 7 5 3 4 2 2 5 5 6 4 2 2 1 2 3 3 4 3
13 12 6 6 6 6 2 5 5 9 8 6 11 23 12 14 16 12 14 14 12 10 8 6 7 8 9 9 8 7 7 7 8 5 3 5 3 2 3 4 3 2 2 3 3 4 4 3 3
5 8 3 4 3 6 8 3 4 3 2 6 12 14 17 12 16 21 16 15 15 12 9 8 8 9 8 9 9 7 8 5 4 4 2 2 4 3 5 4 4 3 3 3 4 3 3 4 4
6 3 6 1 4 4 2 4 2 5 8 10 12 11 13 2 4 19 18 15 15 11 10 11 9 8 9 8 8 8 8 8 6 5 2 3 3 2 2 2 3 4 3 4 4 3 5 3 3
4 4 3 3 2 3 2 4 2 7 5 9 13 13 7 13 23 15 7 16 9 11 8 10 10 10 9 9 7 7 7 7 7 6 5 4 4 3 3 4 4 5 5 6 5 4 5 4 4
9 7 4 4 4 3 3 2 4 2 4 4 5 7 9 9 12 18 18 4 16 17 13 9 9 8 8 7 7 8 6 7 6 5 4 4 3 5 5 6 6 6 6 6 5 6 7 6 6
11 3 6 6 7 4 5 1 4 3 1 4 8 6 8 12 16 5 3 10 9 9 8 9 7 7 8 7 8 8 8 7 6 4 4 5 6 5 6 6 6 7 7 7 6 7 6 7 6
Wind_Direction
174 195 191 270 299 75 261 3 266 74 45 59 56 91 87 42 41 150 101 115 125 132 138 139 136 135 135 125 126 126 112 109 101 89 96 111 117 115 109 106 102 100 91 82 76 67 49 27 25
224 235 213 289 110 302 142 107 280 170 148 149 124 102 86 75 84 128 106 127 130 131 133 134 134 133 129 127 115 113 109 111 103 111 122 124 121 115 116 111 110 105 94 78 62 43 37 15 358
280 249 255 152 268 211 143 212 217 237 179 192 92 81 74 115 124 107 120 130 131 135 133 139 136 134 128 125 124 121 117 127 134 136 133 132 130 131 122 115 109 104 96 90 58 20 356 343 340
328 329 306 116 245 264 164 185 210 246 194 134 109 82 77 29 118 129 131 133 132 138 137 142 141 137 133 137 135 128 139 146 147 142 142 142 137 127 116 110 103 98 93 79 48 13 342 339 337
14 38 2 309 234 98 102 173 194 159 181 111 102 93 78 56 114 130 136 140 138 137 139 140 138 135 138 145 148 151 150 150 149 149 149 149 143 136 133 127 119 103 87 73 50 340 306 301 304
55 56 31 323 314 51 161 157 157 107 102 111 106 113 79 126 129 143 152 150 146 143 144 147 144 142 146 151 157 156 156 155 156 159 161 155 158 159 159 152 147 148 157 187 231 248 263 274 284
109 112 233 289 336 348 325 30 22 93 174 118 144 91 140 155 154 160 163 148 140 145 145 149 151 150 155 155 160 163 160 160 165 168 165 173 182 182 180 181 187 188 196 209 237 255 268 275 282
112 126 103 32 355 295 305 315 143 127 69 93 20 17 173 172 166 161 168 141 146 148 150 149 153 157 159 157 163 165 165 171 172 177 179 192 192 197 200 208 210 212 220 222 236 248 263 275 284
85 65 168 177 259 291 296 313 356 38 63 67 94 8 142 154 168 164 170 142 149 157 149 155 158 163 154 154 167 171 175 177 181 190 196 207 190 212 220 218 220 222 223 230 247 260 266 271 284
115 338 202 218 191 199 256 293 56 21 93 74 100 206 157 173 175 174 176 177 163 158 156 158 162 168 160 161 166 164 178 175 186 199 204 203 207 208 217 220 222 222 227 230 249 261 265 276 257
163 190 194 224 225 210 217 252 192 182 123 152 174 196 174 207 195 183 189 187 154 162 157 167 165 172 165 162 165 172 182 186 196 210 206 204 222 230 213 235 208 193 245 249 268 287 275 284 297
125 215 179 232 228 195 224 257 252 196 205 177 186 194 158 221 191 192 194 160 130 151 153 163 165 156 162 158 181 176 180 190 189 208 188 188 182 73 54 96 190 185 267 235 207 272 241 256 276
161 190 199 225 259 254 250 260 176 79 336 163 174 174 188 206 186 197 184 144 129 145 156 157 158 152 164 163 165 182 189 169 164 121 117 95 76 73 31 353 47 56 351 351 327 328 306 336 308
99 182 203 239 200 255 290 348 91 249 156 166 167 188 199 181 171 167 112 134 133 143 154 156 154 147 141 136 138 105 120 127 114 110 104 87 91 80 48 360 23 13 1 315 291 284 319 287 305
334 42 44 34 15 18 23 334 187 220 208 155 143 141 170 146 132 142 137 139 143 142 130 144 143 130 114 114 105 109 132 124 111 114 109 88 68 48 33 4 10 353 298 288 320 8 28 23 11
31 48 9 0 322 223 79 290 299 245 206 210 157 139 123 117 123 122 128 119 131 129 139 142 143 136 122 112 119 128 126 133 135 141 159 198 230 175 351 6 351 287 295 359 43 35 32 22 4
14 271 303 302 307 346 146 254 269 225 232 227 162 141 133 125 114 118 117 123 132 136 138 131 145 141 133 131 139 149 170 161 153 140 122 211 223 145 193 280 282 331 36 34 35 42 58 17 358
268 287 7 272 250 249 301 282 248 235 240 217 83 79 55 39 150 138 119 102 80 83 100 111 114 116 120 127 137 136 134 112 111 120 173 163 141 163 184 33 50 52 41 24 37 36 15 20 359
271 262 271 267 210 222 234 250 252 235 236 67 64 75 139 193 171 119 114 108 101 103 108 112 121 134 127 138 138 123 145 143 113 135 146 152 187 80 90 90 58 43 46 43 41 25 33 3 348
242 250 260 266 226 199 234 239 246 300 103 117 112 97 78 59 339 93 124 104 105 129 129 125 132 140 158 149 151 143 147 140 145 158 160 151 101 107 87 78 64 45 31 28 31 54 20 348 330
248 236 264 300 303 265 234 321 121 91 105 101 100 124 117 142 179 222 126 119 118 131 142 139 143 137 147 139 130 82 86 83 94 119 116 133 110 109 101 96 90 80 73 41 42 43 36 318 315
257 303 346 332 336 291 313 283 212 171 114 169 162 183 152 148 177 193 138 138 134 157 128 125 113 108 114 123 117 135 149 160 181 157 157 129 120 122 118 119 115 104 66 45 28 33 205 54 299
259 335 285 285 284 326 298 75 246 106 4 300 253 151 205 104 138 98 149 146 137 130 121 138 117 107 93 77 104 116 112 109 115 139 157 133 136 128 124 120 106 108 102 341 344 259 305 264 202
302 329 336 320 290 357 262 167 357 349 303 357 358 350 185 144 130 139 241 156 134 122 131 139 125 117 106 91 78 81 87 90 93 85 98 160 130 108 114 117 132 122 126 240 271 264 271 272 245
13 5 326 340 350 244 358 77 230 337 349 353 5 12 130 155 126 194 214 141 135 159 164 157 137 128 120 108 96 93 100 100 98 93 79 73 98 99 160 155 169 159 228 259 263 275 277 269 231
273 155 228 290 270 288 350 97 280 247 290 328 42 62 50 21 146 212 170 156 154 174 165 158 145 131 123 118 114 98 86 86 88 89 80 65 121 177 156 169 167 194 236 256 275 275 278 276 247
247 259 204 212 354 16 239 53 344 349 355 8 35 21 33 337 193 326 173 155 162 167 160 156 130 131 131 141 143 139 135 129 135 147 126 116 138 137 130 182 204 231 240 251 259 253 269 273 270
21 261 357 32 224 274 275 302 210 327 360 5 8 18 44 48 43 328 283 148 149 155 137 130 134 155 164 164 153 147 146 149 153 154 180 200 199 191 240 249 226 229 240 252 254 256 259 276 278
320 318 353 110 137 179 253 241 353 20 58 357 8 69 81 102 68 8 349 68 115 125 143 153 157 164 159 169 159 158 146 148 142 152 179 199 214 218 234 235 227 228 238 247 243 242 253 261 265
253 233 138 125 281 206 180 213 253 225 29 252 82 117 111 106 118 120 1 348 117 125 146 147 162 164 168 159 160 145 134 133 127 153 209 231 226 237 235 245 241 233 235 242 233 241 256 252 260